Lava Hot Springs, Idaho, United States (83246)
Lat: 42.62N, Lon: 112.01W
Wx Zone: IDZ023
Local Info
Past Weather Observations for Today

NOTE: This archive is for the closest National Weather Service station to Lava Hot Springs. Information may differ from the station used for current weather conditions.

Click here for Long-term Archive

Time Weather Temperature Dewpoint Humidity Pressure Winds Precip Visibility
18:53
Clear
27°F / -3°C 23°F / -5°C 86% 30.39 in
(1029 mb)
N 4.6 mph
(N 7 kph)
- 10SM
17:53
Clear
28°F / -2°C 23°F / -5°C 80% 30.42 in
(1030 mb)
ENE 5.8 mph
(ENE 9 kph)
- 10SM
16:53
Clear
36°F / 2°C 25°F / -4°C 65% 30.42 in
(1030 mb)
NE 6.9 mph
(NE 11 kph)
- 10SM
15:53
Clear
36°F / 2°C 27°F / -3°C 70% 30.39 in
(1029 mb)
N 3.5 mph
(N 6 kph)
- 10SM
14:53
Clear
37°F / 3°C 27°F / -3°C 65% 30.39 in
(1029 mb)
ENE 5.8 mph
(ENE 9 kph)
- 10SM
10:53
Clear
27°F / -3°C 21°F / -6°C 80% 30.45 in
(1031 mb)
Calm - 8SM
09:53
Partly Cloudy
Fog And Mist
21°F / -6°C 18°F / -8°C 86% 30.42 in
(1030 mb)
Calm - 6SM
08:53
Partly Cloudy
Fog And Mist
16°F / -9°C 12°F / -11°C 86% 30.45 in
(1031 mb)
Calm - 5SM
08:23
Partly Cloudy
Fog And Mist
12°F / -11°C 10°F / -12°C 92% 30.42 in
(1030 mb)
N 4.6 mph
(N 7 kph)
- 5SM
07:53
Overcast
Fog
12°F / -11°C 9°F / -13°C 85% 30.42 in
(1030 mb)
Calm - 3SM
07:22
Mostly Cloudy
Fog
12°F / -11°C 10°F / -12°C 92% 30.42 in
(1030 mb)
NE 5.8 mph
(NE 9 kph)
- 10SM
07:02
Partly Cloudy
12°F / -11°C 10°F / -12°C 92% 30.42 in
(1030 mb)
ENE 4.6 mph
(ENE 7 kph)
- 9SM
06:53
Partly Cloudy
12°F / -11°C 10°F / -12°C 92% 30.42 in
(1030 mb)
Calm - 9SM
05:53
Partly Cloudy
12°F / -11°C 10°F / -12°C 92% 30.42 in
(1030 mb)
NNE 3.5 mph
(NNE 6 kph)
- 10SM
05:01
Partly Cloudy
14°F / -10°C 10°F / -12°C 85% 30.42 in
(1030 mb)
NE 4.6 mph
(NE 7 kph)
- 10SM
04:53
Clear
14°F / -10°C 10°F / -12°C 85% 30.42 in
(1030 mb)
ENE 5.8 mph
(ENE 9 kph)
- 10SM
03:53
Clear
14°F / -10°C 12°F / -11°C 92% 30.42 in
(1030 mb)
ENE 4.6 mph
(ENE 7 kph)
- 9SM
03:18
Partly Cloudy
16°F / -9°C 12°F / -11°C 86% 30.42 in
(1030 mb)
ENE 3.5 mph
(ENE 6 kph)
- 8SM
02:53
Clear
16°F / -9°C 12°F / -11°C 86% 30.42 in
(1030 mb)
ENE 3.5 mph
(ENE 6 kph)
- 8SM
02:30
Partly Cloudy
16°F / -9°C 12°F / -11°C 86% 30.42 in
(1030 mb)
NE 4.6 mph
(NE 7 kph)
- 7SM
02:21
Mostly Cloudy
Fog And Mist
18°F / -8°C 16°F / -9°C 93% 30.42 in
(1030 mb)
N 4.6 mph
(N 7 kph)
- 4SM
02:19
Mostly Cloudy
Fog And Mist
18°F / -8°C 16°F / -9°C 93% 30.42 in
(1030 mb)
N 4.6 mph
(N 7 kph)
- 1 1/4SM
02:13
Obscured
Fog
18°F / -8°C 18°F / -8°C 100% 30.42 in
(1030 mb)
N 4.6 mph
(N 7 kph)
- 1/4SM
01:53
Obscured
Fog
19°F / -7°C 18°F / -8°C 93% 30.42 in
(1030 mb)
N 3.5 mph
(N 6 kph)
- M1/4SM
01:17
Obscured
Fog
19°F / -7°C 18°F / -8°C 93% 30.42 in
(1030 mb)
Calm - 1/4SM
01:10
Obscured
Fog
19°F / -7°C 18°F / -8°C 93% 30.42 in
(1030 mb)
Calm - 1/4SM
00:53
Obscured
Fog
19°F / -7°C 18°F / -8°C 93% 30.42 in
(1030 mb)
N/A - 1/4SM
00:42
Obscured
Fog
19°F / -7°C 18°F / -8°C 93% 30.45 in
(1031 mb)
Calm - 1/4SM
00:36
Mostly Cloudy
Fog And Mist
18°F / -8°C 18°F / -8°C 100% 30.45 in
(1031 mb)
Calm - 1 1/2SM
00:30
Mostly Cloudy
18°F / -8°C 16°F / -9°C 93% 30.45 in
(1031 mb)
N 3.5 mph
(N 6 kph)
- 7SM
00:21
Partly Cloudy
18°F / -8°C 14°F / -10°C 86% 30.45 in
(1031 mb)
Calm - 7SM
Time Weather Temperature Dewpoint Humidity Pressure Winds Precip Visibility


Weather for websites

WeatherForYou.com, LLC is not responsible for any damages or problems caused by this service. Current weather conditions are obtained from the closest station including government and personal stations which may have varying degrees of accuracy. Weather forecasts are derived from the NOAA NDFD. Like all things, this site belongs to Jesus Christ... He just trusts us to maintain it. If you have any questions or comments email webmaster@weatherforyou.com

Copyright © 2016, WeatherForYou.com LLC. All rights reserved.